Waarnemingen

Advertentie
Mijn weer
Ristem, Zweden (2013): temperatuur & dauwpunt: 10.01.2018 10:00:00 - 16.01.2018 10:00:00 (CET)Ristem, Zweden (2013): windsnelheid & windstoten: 10.01.2018 10:00:00 - 16.01.2018 10:00:00 (CET)Ristem, Zweden (2013): windrichting: 10.01.2018 10:00:00 - 16.01.2018 10:00:00 (CET)Ristem, Zweden (2013): luchtdruk: 10.01.2018 10:00:00 - 16.01.2018 10:00:00 (CET)Ristem, Zweden (2013): zicht: 10.01.2018 10:00:00 - 16.01.2018 10:00:00 (CET)Ristem, Zweden (2013): neerslag: 10.01.2018 10:00:00 - 16.01.2018 10:00:00 (CET)
Datum & Tijd tt [°C] td [°C] ff [km/u] ff [kn] fx [km/u] fx [kn] dd ppp [hPa] vv [km] rr [mm]
16.01.2018 10:00:00 - - - - - - - - - -
16.01.2018 09:00:00 -6,5 -11,4 41 22 76 41 O 991,2 18 0,0
16.01.2018 08:00:00 -6,5 -10,9 37 20 76 41 OZO 991,7 21 0,0
16.01.2018 07:00:00 -5,3 -10,8 24 13 76 41 O 991,4 50 0,0
16.01.2018 06:00:00 -5,1 -9,7 39 21 76 41 O 991,2 40 0,0
16.01.2018 05:00:00 -5,5 -9,4 43 23 72 39 OZO 991,0 20 0,0
16.01.2018 04:00:00 -5,3 -8,9 37 20 71 38 O 992,8 13 0,0
16.01.2018 03:00:00 -4,9 -8,6 36 20 75 40 OZO 993,0 41 0,0
16.01.2018 02:00:00 -4,7 -9,2 47 26 78 42 OZO 993,5 14 0,0
16.01.2018 01:00:00 -5,0 -8,9 43 23 86 47 OZO 994,4 19 0,0
16.01.2018 00:00:00 -5,1 -8,7 51 27 93 50 ZO 994,2 9 0,0
15.01.2018 23:00:00 -4,9 -9,0 45 25 93 50 ZO 994,3 8 0,0
15.01.2018 22:00:00 -4,8 -8,5 51 28 85 46 ZO 994,3 6 0,0
15.01.2018 21:00:00 -5,0 -9,1 48 26 82 44 ZO 995,6 8 0,0
15.01.2018 20:00:00 -3,3 -11,1 41 22 86 47 OZO 996,1 15 0,0
15.01.2018 19:00:00 -4,9 -9,9 43 23 103 55 OZO 997,5 7 0,0
15.01.2018 18:00:00 -5,2 -10,6 53 29 103 55 ZO 997,2 4,1 0,0
15.01.2018 17:00:00 -5,9 -11,6 50 27 89 48 ZO 998,0 5 0,0
15.01.2018 16:00:00 -6,4 -12,5 41 22 79 43 ZO 1000,3 10 0,0
15.01.2018 15:00:00 -7,1 -13,3 39 21 79 43 ZO 1001,2 22 0,0
15.01.2018 14:00:00 -7,1 -14,0 36 20 72 39 ZO 1002,2 22 0,0
15.01.2018 13:00:00 -6,1 -13,5 32 18 71 38 ZO 1002,3 50 0,0
15.01.2018 12:00:00 -6,2 -12,9 39 21 74 40 ZO 1003,0 29 0,0
15.01.2018 11:00:00 -5,8 -13,0 32 17 74 40 ZO 1002,0 25 0,0
15.01.2018 10:00:00 -5,7 -13,3 31 17 72 39 OZO 1002,7 42 0,0
15.01.2018 09:00:00 -6,4 -13,5 35 19 72 39 OZO 1003,3 27 0,0
15.01.2018 08:00:00 -5,6 -13,2 40 22 68 37 OZO 1002,3 37 0,0
15.01.2018 07:00:00 -6,1 -13,2 28 15 62 33 ZO 1003,1 50 0,0
15.01.2018 06:00:00 -6,0 -13,1 30 16 51 28 ZO 1003,7 50 0,0
15.01.2018 05:00:00 -6,1 -13,9 27 14 56 30 ZO 1004,1 50 0,0
15.01.2018 04:00:00 -6,6 -14,1 23 13 56 30 ZO 1005,7 50 0,0
15.01.2018 03:00:00 -7,9 -14,5 21 11 43 23 ZZO 1007,0 50 0,0
15.01.2018 02:00:00 -7,3 -14,8 21 11 40 21 ZO 1008,1 50 0,0
15.01.2018 01:00:00 -8,9 -14,1 9 5 36 19 Z 1009,1 50 0,0
15.01.2018 00:00:00 -10,7 -14,1 18 10 35 19 Z 1010,9 50 0,0
14.01.2018 23:00:00 -11,5 -14,7 13 7 35 19 ZO 1011,8 50 0,0
14.01.2018 22:00:00 -14,9 -17,4 6 4 31 17 NW 1014,2 50 0,0
14.01.2018 21:00:00 -14,6 -16,8 6 3 31 17 NW 1014,7 50 0,0
14.01.2018 20:00:00 -15,6 -18,0 5 3 19 11 ZZO 1015,6 14 0,0
14.01.2018 19:00:00 -17,1 -19,4 6 3 20 11 NO 1016,9 50 0,0
14.01.2018 18:00:00 -17,6 -20,2 7 4 20 11 WNW 1018,2 50 0,0
14.01.2018 17:00:00 -18,4 -21,0 8 5 20 11 NNW 1018,9 50 0,0
14.01.2018 16:00:00 -16,9 -19,2 11 6 18 10 W 1019,3 50 0,0
14.01.2018 15:00:00 -17,8 -20,1 10 6 15 8 N 1019,4 50 0,0
14.01.2018 14:00:00 -19,1 -21,5 4 2 11 6 NW 1020,5 50 0,0
14.01.2018 13:00:00 -17,7 -19,9 3 2 11 6 W 1021,1 50 0,0
14.01.2018 12:00:00 -18,1 -20,3 3 2 8 5 NNW 1021,6 50 0,0
14.01.2018 11:00:00 -17,6 -19,8 3 2 8 5 Z 1021,8 50 0,0
14.01.2018 10:00:00 -17,8 -20,0 5 3 11 6 NW 1022,4 50 0,0
14.01.2018 09:00:00 -15,7 -17,6 3 1 11 6 ONO 1023,2 50 0,0
14.01.2018 08:00:00 -17,6 -19,8 2 1 7 4 WZW 1023,7 50 0,0
14.01.2018 07:00:00 -16,5 -18,6 4 2 6 4 W 1024,3 50 0,0
14.01.2018 06:00:00 -17,2 -19,3 2 1 7 4 NW 1024,9 50 0,0
14.01.2018 05:00:00 -18,5 -20,7 2 1 7 4 NW 1025,6 50 0,0
14.01.2018 04:00:00 -19,2 -21,5 3 2 10 5 ZW 1026,6 38 0,0
14.01.2018 03:00:00 -17,8 -19,7 3 2 10 5 O 1027,1 4,2 0,0
14.01.2018 02:00:00 -17,9 -19,7 3 2 8 4 NW 1028,0 2,0 0,0
14.01.2018 01:00:00 -17,1 -18,9 3 2 9 5 WZW 1028,5 2,2 0,0
14.01.2018 00:00:00 -17,1 -18,7 2 1 10 5 WZW 1029,0 0,9 0,0
13.01.2018 23:00:00 -16,4 -18,2 3 2 10 5 NNO 1029,7 50 0,0
13.01.2018 22:00:00 -15,8 -17,6 4 2 8 5 WZW 1030,2 48 0,0
13.01.2018 21:00:00 -15,6 -17,4 4 2 8 4 WZW 1030,5 50 0,0
13.01.2018 20:00:00 -14,8 -16,6 0 0 7 4 N 1031,0 50 0,0
13.01.2018 19:00:00 -14,9 -16,7 0 0 6 3 N 1031,5 50 0,0
13.01.2018 18:00:00 -14,8 -16,5 2 1 8 4 NNW 1031,9 50 0,0
13.01.2018 17:00:00 -13,6 -15,0 2 1 8 4 OZO 1031,7 50 0,0
13.01.2018 16:00:00 -12,9 -14,3 2 1 6 3 W 1031,8 50 0,0
13.01.2018 15:00:00 -11,1 -12,4 3 1 7 4 NW 1032,0 50 0,0
13.01.2018 14:00:00 -11,6 -13,0 0 0 7 4 N 1032,7 50 0,0
13.01.2018 13:00:00 -10,0 -11,2 2 1 7 4 WNW 1032,8 50 0,0
13.01.2018 12:00:00 -9,8 -11,0 0 0 7 4 N 1033,0 50 0,0
13.01.2018 11:00:00 -8,6 -9,8 2 1 9 5 W 1033,2 50 0,0
13.01.2018 10:00:00 -9,7 -10,8 2 1 13 7 NW 1033,9 50 0,0
13.01.2018 09:00:00 -8,3 -9,6 4 2 13 7 W 1033,5 50 0,0
13.01.2018 08:00:00 -8,0 -9,3 0 0 13 7 N 1033,9 50 0,0
13.01.2018 07:00:00 -8,5 -10,0 4 2 18 10 WZW 1034,2 50 0,0
13.01.2018 06:00:00 -8,2 -10,6 6 3 18 10 NNO 1034,4 50 0,0
13.01.2018 05:00:00 -5,9 -7,3 9 5 16 9 NNO 1034,1 50 0,0
13.01.2018 04:00:00 -7,1 -8,3 3 2 15 8 W 1034,9 50 0,0
13.01.2018 03:00:00 -6,5 -7,6 3 2 15 8 NNO 1035,0 50 0,0
13.01.2018 02:00:00 -6,4 -7,8 8 4 14 7 N 1035,3 50 0,0
13.01.2018 01:00:00 -6,6 -8,1 7 4 13 7 NO 1035,5 50 0,0
13.01.2018 00:00:00 -4,3 -6,3 8 5 12 7 NNO 1035,4 50 0,0
12.01.2018 23:00:00 -3,3 -5,2 4 2 20 11 NNO 1035,7 50 0,0
12.01.2018 22:00:00 -3,8 -5,8 12 6 20 11 NNO 1035,5 50 0,0
12.01.2018 21:00:00 -3,9 -5,7 10 5 15 8 NNO 1035,3 50 0,0
12.01.2018 20:00:00 -1,6 -4,1 12 6 15 8 N 1034,8 50 0,0
12.01.2018 19:00:00 -0,9 -3,3 5 3 13 7 NNO 1034,5 50 0,0
12.01.2018 18:00:00 -0,7 -3,2 3 2 13 7 NO 1034,2 50 0,0
12.01.2018 17:00:00 -1,9 -3,8 4 2 14 8 ONO 1034,2 50 0,0
12.01.2018 16:00:00 -2,6 -4,0 3 2 14 8 O 1033,9 50 0,0
12.01.2018 15:00:00 -0,8 -3,0 8 5 13 7 WNW 1033,2 50 0,0
12.01.2018 14:00:00 -1,1 -2,4 6 4 10 6 N 1032,9 50 0,0
12.01.2018 13:00:00 -1,3 -3,0 5 3 11 6 ONO 1032,3 50 0,0
12.01.2018 12:00:00 -0,5 -2,2 5 3 11 6 ONO 1031,5 50 0,0
12.01.2018 11:00:00 -0,2 -2,1 3 1 14 7 O 1030,8 50 0,0
12.01.2018 10:00:00 -0,1 -2,5 6 3 22 12 O 1030,3 50 0,0
12.01.2018 09:00:00 0,5 -1,9 5 3 24 13 WZW 1029,4 50 0,0
12.01.2018 08:00:00 0,7 -2,2 10 6 24 13 ZW 1028,8 50 0,0
12.01.2018 07:00:00 0,0 -2,5 8 4 21 11 ZW 1028,1 30 0,0
12.01.2018 06:00:00 -2,0 -4,0 5 3 21 11 N 1028,1 50 0,0
12.01.2018 05:00:00 -1,7 -4,0 7 4 13 7 WZW 1028,0 50 0,0
12.01.2018 04:00:00 -3,7 -4,8 3 2 11 6 N 1028,0 50 0,0
12.01.2018 03:00:00 -8,6 -9,9 4 2 8 4 O 1028,4 50 0,0
12.01.2018 02:00:00 -10,4 -11,9 4 2 7 4 O 1028,5 50 0,0
12.01.2018 01:00:00 -11,0 -12,6 4 2 6 4 NO 1028,3 50 0,0
12.01.2018 00:00:00 -13,8 -15,6 3 2 9 5 NNW 1028,4 50 0,0
11.01.2018 23:00:00 -13,7 -15,5 3 2 9 5 NNW 1028,0 50 0,0
11.01.2018 22:00:00 -14,5 -16,5 3 1 11 6 O 1028,0 50 0,0
11.01.2018 21:00:00 -15,8 -17,9 4 2 11 6 W 1027,9 50 0,0
11.01.2018 20:00:00 -17,2 -19,4 3 2 7 4 NO 1028,2 50 0,0
11.01.2018 19:00:00 -17,5 -19,7 3 2 6 3 N 1027,5 50 0,0
11.01.2018 18:00:00 -17,9 -20,2 3 1 8 4 ZZW 1027,3 50 0,0
11.01.2018 17:00:00 -18,6 -20,9 3 2 8 4 NO 1027,4 50 0,0
11.01.2018 16:00:00 -20,1 -22,5 3 2 8 5 WNW 1027,4 50 0,0
11.01.2018 15:00:00 -18,1 -20,3 2 1 10 5 N 1027,1 50 0,0
11.01.2018 14:00:00 -19,5 -21,5 6 3 11 6 ONO 1026,9 1,5 0,0
11.01.2018 13:00:00 -17,2 -19,3 2 1 11 6 ZZW 1026,7 50 0,0
11.01.2018 12:00:00 -18,7 -20,5 5 3 7 4 NO 1027,1 - -
11.01.2018 11:00:00 -19,9 -22,2 0 0 7 4 N 1026,8 26 0,1
11.01.2018 10:00:00 -19,6 -21,9 2 1 8 4 ONO 1026,8 14 0,0
11.01.2018 09:00:00 -16,6 -18,5 3 2 8 4 N 1026,3 14 0,0
11.01.2018 08:00:00 -18,6 -20,6 2 1 11 6 WNW 1026,3 14 0,0
11.01.2018 07:00:00 -15,9 -17,4 6 3 11 6 N 1025,5 45 0,0
11.01.2018 06:00:00 -16,9 -18,8 0 0 5 3 N 1025,6 50 0,0
11.01.2018 05:00:00 -17,2 -19,0 0 0 5 3 N 1025,6 50 0,0
11.01.2018 04:00:00 -16,4 -18,2 0 0 4 2 N 1025,6 50 0,0
11.01.2018 03:00:00 -16,3 -18,2 0 0 5 3 N 1025,7 50 0,0
11.01.2018 02:00:00 -16,3 -18,1 0 0 7 4 N 1025,7 23 0,2
11.01.2018 01:00:00 -15,5 -17,3 2 1 7 4 WNW 1025,6 50 0,0
11.01.2018 00:00:00 -14,8 -16,5 2 1 5 3 ONO 1025,3 50 0,0
10.01.2018 23:00:00 -14,8 -16,3 2 1 5 3 WNW 1025,3 18 0,0
10.01.2018 22:00:00 -15,4 -17,2 2 1 10 6 W 1025,3 12 0,0
10.01.2018 21:00:00 -13,5 -15,2 2 1 10 6 O 1025,0 50 0,0
10.01.2018 20:00:00 -12,0 -13,3 3 2 13 7 WZW 1024,7 50 0,0
10.01.2018 19:00:00 -12,6 -14,3 0 0 13 7 N 1024,5 50 0,0
10.01.2018 18:00:00 -12,7 -14,1 0 0 8 5 N 1024,3 50 0,0
10.01.2018 17:00:00 -10,9 -12,1 0 0 8 5 N 1024,0 50 0,0
10.01.2018 16:00:00 -10,4 -11,4 0 0 15 8 N 1024,1 50 0,0
10.01.2018 15:00:00 -10,9 -11,9 2 1 15 8 NW 1024,3 50 0,0
10.01.2018 14:00:00 -9,8 -10,9 2 1 15 8 WZW 1024,3 50 0,0
10.01.2018 13:00:00 -7,1 -8,5 12 6 15 8 NNO 1024,0 50 0,0
10.01.2018 12:00:00 -7,1 -8,5 7 4 22 12 NNO 1024,1 50 0,0
10.01.2018 11:00:00 -7,8 -8,9 9 5 22 12 ONO 1024,5 6 0,0
10.01.2018 10:00:00 -8,1 -9,6 8 4 19 10 NO 1024,3 50 0,0

tt = temperatuur
td = dauwpunt
ff = windsnelheid
fx = windstoten
dd = windrichting
ppp = luchtdruk
vv = zicht
rr = neerslag

Weerstations in de omgeving